Resultado: 12/10/2017 - RESULTADO FEMININO -

Posição Nome Tempo
1 DANIELLE CRISTINA CASTRO 707 00:24:21
2 KAREN SABRINA DA SILVA PIRES 519 00:25:09
3 GLEICELENA ELEUTERIO 1052 00:26:21
4 ASSUNTA MONTEIRO DOS REIS 1166 00:27:12
5 CARLA GONÇALVES NERIS 751 00:28:24
6 AGNEY KAETON ALVES 1124 00:28:42
7 VILMA CORRÊIA MELHADO 897 00:29:14
8 ANA AMÉLIA DE FREITAS 716 00:29:16
9 CLAIR KNEDEL 946 00:29:42
10 VANESSA BATISTA DA SILVA 1109 00:29:45
11 CLARICE FREZ DA SILVA 601 00:29:49
12 BARBARA DA ANGELA PICHININ 538 00:30:15
13 ANALU TIEMI ELIAS CHATALOV 594 00:30:17
14 VALQUIRIA LESLLIE DE ALMEIDA 531 00:30:22
15 MILENE RODRIGUES MARTINS 1100 00:30:22
16 LUCIANA FOLETTO MONTEFUSCO BAIO 544 00:30:25
17 ALINE DE OLIVEIRA QUEIROZ DA SILVA 602 00:30:30
18 ANGELICA DE FATIMA BORTOLATO PICCIOLI 559 00:30:34
19 ELOIZA MUNIZ CAPPARROS 560 00:30:37
20 ADRIANA DA COSTA 596 00:30:37
21 SILVANA HELENA BOER 981 00:31:21
22 SANDRA REGINA DA SILVA MORAIS 1080 00:31:36
23 ELOIR DINEI CRUZ DO SANTOS 918 00:31:46
24 JULIANA MAZUR DA SILVA LINS 611 00:31:55
25 FRANCIELLI OLIVEIRA DOS SANTOS 535 00:32:13
26 ADRIANA MARA DA CUNHA 705 00:32:33
27 MARLENE APARECIDA DE OLIVEIRA 924 00:32:33
28 GRASIELA MARIA GOMES PERNA 609 00:32:34
29 ELIANE GISELI 978 00:32:34
30 DAIANY BONACIO 590 00:32:41
31 THAÍS CAPPI 915 00:32:57
32 QUEILA ALVES 505 00:33:05
33 NILZA APARECIDA DA SILVA OLIVEIRA 749 00:33:15
34 ROSILDA FAZOLIN 732 00:33:16
35 VALDIVINA MENDES DE MOURA 920 00:33:24
36 DANIELY KOGEMPA 937 00:33:44
37 IVANILZA DE AZEVEDO 1089 00:34:07
38 LUANA MONTEFUSCO BAIO SANTI 539 00:34:12
39 MICHELLE PEREIRA DA SILVA 1043 00:34:23
40 MARGARETE JOSÉ LOURENÇO 1150 00:34:24
41 ROSANA DE FÁTIMA DA COSTA 810 00:34:26
42 FABIANA FELIPOSKI DOS SANTOS 911 00:34:26
43 MARI HAMADA 646 00:34:43
44 ROSILAYNE NUNES DE PAULA 819 00:34:45
45 SANDRA REGINA BENI KAUFIMA 529 00:34:53
46 ROSEMEIRE C. FRANCO 571 00:35:03
47 MIRIAN CANDIDO ABREU 723 00:35:14
48 GRACIELA MOIA DA SILVA 770 00:35:23
49 OCILANIA CARDEAL MAGALHAES VICENTE 1163 00:35:28
50 CLAUDIA ANDREA MARTINS 1164 00:35:28
51 LUCIENE COSTA SARAIVA 847 00:35:33
52 NEUSA MARIA CARRASCHI 938 00:35:38
53 JUCELIA RIBEIRO 682 00:35:49
54 THALY LUZ 977 00:36:03
55 NATALIA QUIARATI 730 00:36:04
56 ISABEL CRISTINA MIOTELO 844 00:36:11
57 MARIA ROSÂNGELA BARBOSA DE LIMA SILVA 653 00:36:25
58 JAIR DONIZETE MARQUES DA SILVA 697 00:36:25
59 MARIANA MACHADO LIMA 718 00:36:34
60 ANDREIA SANCHES FERNANDES 1056 00:37:01
61 TATIANE ANACLETO NEVES 741 00:37:03
62 FATIMA BATISTA DE MOURA PEREGO 1137 00:37:12
63 SANDRA REGINA BENI KAUFFMAN 1171 00:37:18
64 EDILAINE VITALINO CAPARELLI 591 00:37:22
65 EDILAINE BONDIOLLI 504 00:37:32
66 MARISLENE CORREIA FARIAS 1040 00:37:39
67 MICHELLE ALESSANDRA KOJIMA DE OLIVEIRA 878 00:37:45
68 GABRIELE RENATA DE CARVALHO FERREIRA 578 00:37:46
69 SIMONE FERREIRA DOS SANTOS 720 00:37:46
70 PATRÍCIA CARDOSO 660 00:37:52
71 ÉRICA MAIONE DIAS VIDAL SILVEIRA 1103 00:37:59
72 NEUSA SILVINO DA SILVA 782 00:38:30
73 GLAUCIA PAMILA VITORIANO 841 00:38:41
74 NOELI CRISTINA DA SILVA 1010 00:38:43
75 PALOMA MACIEL DOS SANTOS 982 00:38:45
76 SUELI PAULINO DE SOUZA 1023 00:38:53
77 ANA CLAUDIA DOS SANTOS 988 00:38:59
78 JULIANA RODRIGUES FERREIRA 785 00:39:01
79 LETÍCIA BEZERRA PEREIRA 812 00:39:09
80 TARCIS ROSA SILVA 1038 00:39:19
81 ANA DA SILVA FATORI 994 00:39:23
82 APARECIDA DE OLIVEIRA LELLI 767 00:39:24
83 DANIELLE ALVES DE SOUZA 564 00:39:25
84 JOSIANE XAVIER M DE MOURA 576 00:39:26
85 ANDREIA PAIXÃO DOS SANTOS 771 00:39:33
86 GENERICE LIRA CASTRO 925 00:39:44
87 ANA LUIZA DA SILVA FERNANDES 690 00:39:47
88 BARBARA CRISTINA DA SILVA 742 00:39:51
89 EDNA LIRA CASTRO 1102 00:39:51
90 ELIZA APARECIDA MACHADO DA SILVA 775 00:40:04
91 CAMILA ESTANISLAU VITORINO 1018 00:40:05
92 ANTÔNIA SIMONE ALVES CARDOSO 783 00:40:08
93 SILMARA ALVES DE OLIVEIRA DE JESUS 837 00:40:23
94 VIVIANI APARECIDA DE LIMA GARCIA 1076 00:40:26
95 LUCIANA TAVARES 1092 00:40:26
96 DAIANE AP STELLA 507 00:40:33
97 QUEIDMA SILVA PEREIRA DE OLIVEIRA 553 00:40:34
98 EDILAINE TEIXEIRA SOARES 903 00:40:40
99 ANDREA LEMOS 1008 00:40:46
100 CAMILA DE ALMEIDA ZUIM 793 00:40:58
101 ÉRICA KHATLAB KURAOKA 1131 00:41:24
102 WANESSA ANTONIO CAMPOS 784 00:41:28
103 LUCIANA MEIRE SARDINHA 1032 00:41:28
104 NEIZA ALVES DA SILVA 809 00:41:32
105 CRISTIANE MERCI NEVES 628 00:41:35
106 MARIANA CARDIN CAMPOS ZOCCANTE 626 00:41:39
107 ROSANA DE ALMEIDA CRUZ 676 00:41:40
108 KÁTIA APARECIDA FERNANDES KUHNEN 780 00:41:40
109 DEBORA REGINA FELIPE 1120 00:41:40
110 ANDREIA TOIGO 655 00:41:41
111 CLARICE BICUDO 713 00:41:48
112 FRANCIELE CRISTINA FERREIRA DE SOUZA 972 00:41:49
113 GISELE SIQUEIRA GOMES 518 00:41:54
114 DORQUES RIBEIRO DOS SANTOS 1061 00:41:54
115 DARLEI APARECIDA MALVEIRO ESTEVES 556 00:41:56
116 MONIKE DE CARVALHO FERREIRA 661 00:41:56
117 EDLEIA DE SOUZA DOMINGUES 789 00:42:05
118 KELLY CRISTIANE VIANA 993 00:42:12
119 MEYRE CRISTINA FRANCISCO 582 00:42:18
120 MARIANA TESSAROLLO 1106 00:42:18
121 MARIA DA PENHA CUNHA 610 00:42:19
122 DÉBORA APARECIDA DA CUNHA 746 00:42:46
123 LEILA CRISTINA DUCIAH 522 00:42:47
124 IONE AUGUSTA PONCHIO PINHEIRO 1121 00:42:57
125 CLEIDE RODRIGUES DE OLIVEIRA 883 00:43:04
126 LARISSA LAILA CASSAROTTI DA SILVA 663 00:43:14
127 HELENA TIYOMI KOGA ABE 643 00:43:16
128 LUCIMAR CASTRO SANCHES MARQUES 880 00:43:16
129 ROSEMEIRE PEREIRA DA SILVA 851 00:43:24
130 ELIZABETE REIS 534 00:43:26
131 ELOISA MACHADO 921 00:43:32
132 ANDREA ALVES MARTINS CABESTRE 656 00:43:47
133 PALOMA APARECIDA DA SILVA SANTOS 790 00:43:56
134 JULIANA FIGUEIREDO DOS SANTOS DA SILVA 747 00:44:05
135 MARTA FELIX DOS SANTOS 910 00:44:10
136 RITA DE CASCIA MENDES FRANCO 733 00:44:11
137 ODILIA DA SILVA DOSSI 506 00:44:15
138 CACILDA MOREIRA YOSHIDA 727 00:44:21
139 VIRGÍNIA CÔRTES VOLPATO 858 00:44:45
140 FRANCIELLE CRISTINA PELINCER 1013 00:44:48
141 HIRIS MAIRAN MENDONÇA 724 00:44:51
142 NILSEN DE JESUS PAESLANDIN CASSAROTTI 941 00:45:01
143 ADINELIA DOS SANTOS 1134 00:45:04
144 ANA PAULA BELVIS FERMINO 671 00:45:11
145 VANESSA SALINAS RIGUETE 561 00:45:18
146 FABIULIA DE SOUZA 928 00:45:20
147 ROSANA MARIA DOS PASSOS 1011 00:45:21
148 MARIA CAROLINA DA SILVA 758 00:45:22
149 IVONETE AMARO DA SILVA 786 00:45:22
150 MARCIA CRISTINA DOS SANTOS 587 00:45:25
151 PAULA SPECH MACHADO 521 00:45:26
152 LUCELENA TAVARES DE ALMEIDA ZUIM 801 00:45:28
153 KARINE FLORIANO FELICIANO 1046 00:45:28
154 MARI MIURA 577 00:45:29
155 CLARETE CARDOSO DE OLIVEIRA 808 00:45:32
156 AMANDA REBECA M VIEIRA 575 00:45:35
157 CLAUDINEIA APARECIDA DE SOUZA 579 00:45:35
158 MARCIA BRANDÃO OLIVEIRA BORGES 842 00:45:49
159 JOSIANE LOPES LADA 776 00:46:09
160 TANIA DE FATIMA MESQUINI MACHADO 608 00:46:18
161 ELIANDRA CAVALARI P PINHEIRO 1063 00:46:19
162 SIRLENE ARANEGA PIVA 1062 00:46:29
163 DENISE RODRIGUES DOS SANTOS 850 00:46:53
164 MARA BRANDÃO OLIVEIRA 853 00:46:53
165 ANDREIA SERAFIN VIANA ROCHA 625 00:46:54
166 CAMILAS SANTOS MAIA DOS SANTOS 1025 00:46:56
167 SONIA LIUZA DOS SANTOS 1175 00:46:59
168 SISLENE FELISBINO 803 00:47:03
169 SILVANA DUARTE MARTUCCI 815 00:47:03